This is the latest recevied weather packets stored in our database for station/object DL4PY-13. If no packets are shown the sender has not sent any weather packets the latest 10 day(s).
| Time | Temp. | Humidity | Pressure | Rain* | Wind** | Luminosity | Snow |
|---|---|---|---|---|---|---|---|
| 1777904125 | 15° C | 79% | 1014.9 hPa | 0 mm | - | - | - |
| 1777903217 | 15.56° C | 82% | 1014.9 hPa | 0 mm | - | - | - |
| 1777902918 | 15.56° C | 80% | 1014.9 hPa | 0 mm | - | - | - |
| 1777902617 | 15.56° C | 81% | 1014.9 hPa | 0 mm | - | - | - |
| 1777902317 | 15.56° C | 80% | 1015.1 hPa | 0 mm | - | - | - |
| 1777902018 | 15.56° C | 78% | 1015.1 hPa | 0 mm | - | - | - |
| 1777901717 | 16.11° C | 80% | 1015.2 hPa | 0 mm | - | - | - |
| 1777901424 | 16.11° C | 78% | 1015.1 hPa | 0 mm | - | - | - |
| 1777901120 | 16.11° C | 76% | 1015.2 hPa | 0 mm | - | - | - |
| 1777900525 | 16.67° C | 74% | 1015 hPa | 0 mm | - | - | - |
| 1777900517 | 16.67° C | 74% | 1015.1 hPa | 0 mm | - | - | - |
| 1777899624 | 16.67° C | 74% | 1015.1 hPa | 0 mm | - | - | - |
| 1777899316 | 16.67° C | 75% | 1015 hPa | 0 mm | - | - | - |
| 1777898718 | 16.67° C | 75% | 1015.1 hPa | 0 mm | - | - | - |
| 1777898417 | 16.67° C | 74% | 1015.1 hPa | 0 mm | - | - | - |
| 1777898117 | 17.22° C | 73% | 1014.9 hPa | 0 mm | - | - | - |
| 1777897824 | 17.22° C | 72% | 1014.9 hPa | 0 mm | - | - | - |
| 1777897217 | 17.78° C | 69% | 1014.7 hPa | 0 mm | - | - | - |
| 1777896917 | 17.78° C | 68% | 1014.7 hPa | 0 mm | - | - | - |
| 1777896318 | 17.78° C | 66% | 1014.7 hPa | 0 mm | - | - | - |
| 1777896018 | 18.33° C | 66% | 1014.6 hPa | 0 mm | - | - | - |
| 1777895417 | 18.89° C | 64% | 1014.5 hPa | 0 mm | - | - | - |
| 1777895118 | 18.89° C | 64% | 1014.5 hPa | 0 mm | - | - | - |
| 1777894517 | 18.89° C | 63% | 1014.6 hPa | 0 mm | - | - | - |
| 1777894224 | 18.89° C | 63% | 1014.6 hPa | 0 mm | - | - | - |
* Rain latest hour (hover to see other rain measurements)
** Current wind speed in m/s (hover to see current wind gust speed)